الصفحة الرئيسية
METAR-TAF:

METAR-TAF

مطار :

Grant County Airport

سيلفر سيتي, نيومكسيكو, الولايات المتحدة

دائرة عرض: 32-38N, خط طول: 108-09W, ارتفاع: 1659 متر

مراقبة الطقس الحالي

تاريخ ووقت الإصدار 11 دقيقة قبل الساعة 01:15UTC
ريح 4 عقدة من الغرب/الشمال الغربي
درجة الحرارة 17°درجة مئوية
الرطوبة 39%
ضغط 1018 hPa
الرؤية: 16.1 كم
سماء صافية

METAR: KSVC 150115Z AUTO 29004KT 10SM CLR 17/03 A3007 RMK AO2 T01730025

زمن: 19:26 (01:26 UTC)


TAF: مفقودة

أرصاد الطقس والتوقعات من أكثر من 4000 مطار (تقارير الطقس للمطار METAR والتنبؤ بالطقس بالمطارTAF).

المحطات المتاحة هي النقط الصفراء والحمراء على الخريطة.

حرك المؤشر فوق النقطة لمعرفة اسم المحطة.

ثم انقر لمعرفة أرصاد وتوقعات الطقس.

لتغيير الخارطة: اضغط على الأزرار الخضراء مع رمز الصليب الأسود للتكبير. على الزر الأخضر مع شرطة للتصغير، أو على الأسهم الخضراء للخرائط المجاورة.


METAR-TAF: